AirNav   Get $300 off a Bose A20
 
 859 users online  

KBFA Boyne Mountain Airport
Boyne Falls, Michigan, USA

GOING TO BOYNE FALLS?


FAA INFORMATION EFFECTIVE 28 MARCH 2019

Location

FAA Identifier: BFA
Lat/Long: 45-09-57.0295N / 084-55-26.8100W
45-09.950492N / 084-55.446833W
45.1658415 / -84.9241139
(estimated)
Elevation: 719 ft. / 219.2 m (surveyed)
Variation: 06W (2000)
From city: 1 mile W of BOYNE FALLS, MI
Time zone: UTC -4 (UTC -5 during Standard Time)
Zip code: 49712

Airport Operations

Airport use: Open to the public
Activation date: 08/1964
Control tower: no
ARTCC: MINNEAPOLIS CENTER
FSS: LANSING FLIGHT SERVICE STATION
NOTAMs facility: LAN (NOTAM-D service available)
Attendance: UNATNDD
Wind indicator: yes
Segmented circle: yes
Lights: ACTVT NSTD LIRL RWY 17/35; & REIL RWY 17 & 35 - 122.85.

Airport Communications

CTAF/UNICOM: 122.8
WX ASOS at GLR (13 nm SE): 118.375 (989-732-1571)
WX AWOS-3 at MGN (16 nm N): 119.925 (231-347-5231)
WX AWOS-3 at ACB (16 nm SW): 119.275 (231-533-8941)
WX AWOS-3 at CVX (17 nm NW): 120.0 (231-237-9703)
  • APCH/DEP SERVICE PROVIDED BY MINNEAPOLIS ARTCC ON FREQS 134.6/354.05 (PELLSTON RCAG).

Nearby radio navigation aids

VOR radial/distance  VOR name  Freq  Var
GLRr321/13.1GAYLORD VOR/DME109.2006W
PLNr207/30.0PELLSTON VORTAC111.8006W
CGGr350/(30.2)GRAYLING VOR109.8006W
TVCr044/40.0TRAVERSE CITY VOR/DME114.6002W

 
NDB name  Hdg/Dist  Freq  Var  ID
BANGU338/10.337506WGL --. .-..
CHARLEVOIX124/16.739205WCVX -.-. ...- -..-
GRAYLING357/25.335906WGYG --. -.-- --.

Airport Services

Fuel available: 100LL
FOR FUEL CALL 231-549-6000.
Parking: tiedowns

Runway Information

Runway 17/35

Dimensions: 5187 x 60 ft. / 1581 x 18 m
HAS 10' PAVED SHOULDER EACH SIDE; LAST 4700' RY 35.
Surface: asphalt, in poor condition
RY PAVEMENT - EXTENSIVE CRACKING.
Runway edge lights: non-standard
NSTD, 80 FT FM RY EDGES. RY HAS REFLECTORS SUMMER MONTHS
RUNWAY 17  RUNWAY 35
Latitude: 45-10.369817N45-09.531167N
Longitude: 084-55.559167W084-55.334500W
Elevation: 703.0 ft.719.0 ft.
Traffic pattern: leftleft
Runway heading: 175 magnetic, 169 true355 magnetic, 349 true
Displaced threshold: 300 ft.500 ft.
Markings: nonprecision, in good conditionnonprecision, in good condition
Runway end identifier lights: yesyes
Touchdown point: yes, no lightsyes, no lights
Obstructions: 15 ft. road, 125 ft. left of centerline
+15 FT ROAD 0 FT DSTC 125 FT L.
50 ft. trees, 201 ft. from runway, 130 ft. right of centerline
APCH RATIO 14:1 AT DSPLCD THLD; 38 FT TREES 540 FT FM DSPLCD THLD 170 FT R; APCH RATIO 20:1 BASED ON STRAIGHT OUT.

Airport Ownership and Management from official FAA records

Ownership: Privately-owned
Owner: BOYNE USA INC
#1 BOYNE MTN
BOYNE FALLS, MI 49713
Phone 231-549-6001
Manager: TONY PLUMB
BOYNE MOUNTAIN LODGE, BOX 19
BOYNE FALLS, MI 49713
Phone 231-549-6000

Airport Operational Statistics

Aircraft based on the field: 1
Jet airplanes: 1
    
Aircraft operations: avg 91/week *
90% transient general aviation
10% local general aviation
* for 12-month period ending 31 December 2016

Additional Remarks

DEER & BIRDS ON & INVOF ARPT.
COLD RESTRICTED AIRPORT, ALTITUDE CORRECTION AT OR BLO -29 C.

Instrument Procedures

NOTE: All procedures below are presented as PDF files. If you need a reader for these files, you should download the free Adobe Reader.

NOT FOR NAVIGATION. Please procure official charts for flight.
FAA instrument procedures published for use from 28 March 2019 at 0901Z to 25 April 2019 at 0900Z.

 
IAPs - Instrument Approach Procedures
RNAV (GPS) RWY 17   download (238KB)
RNAV (GPS) RWY 35   download (192KB)
NOTE: Special Take-Off Minimums/Departure Procedures apply   download

Other nearby airports with instrument procedures:

N98 - Boyne City Municipal Airport (4 nm NW)
KGLR - Gaylord Regional Airport (13 nm SE)
KMGN - Harbor Springs Airport (16 nm N)
KACB - Antrim County Airport (16 nm SW)
KCVX - Charlevoix Municipal Airport (17 nm NW)
 
Loc | Ops | Rwys | IFR | FBO | Links
Com | Nav | Svcs | Stats | Notes
Area around KBFA (Boyne Mountain Airport)
 
Road maps at: MapQuest Bing Google
 
Aerial photo
WARNING: Photo may not be current or correct
Aerial photo of KBFA (Boyne Mountain Airport)
Photo taken 05-May-2009

Do you have a better or more recent aerial photo of Boyne Mountain Airport that you would like to share? If so, please send us your photo.

 
Sectional chart

 
Airport distance calculator
Flying to Boyne Mountain Airport? Find the distance to fly.

From to KBFA

Sunrise and sunset
Times for 21-Apr-2019
 Local
(UTC-4)
 Zulu
(UTC)
Morning civil twilight06:1410:14
Sunrise06:4510:45
Sunset20:3100:31
Evening civil twilight21:0301:03

Current date and time
Zulu (UTC)  21-Apr-2019 18:31:06
Local (UTC-4)  21-Apr-2019 14:31:06
 
METAR
KGLR 
14nm SE 
211753Z AUTO 09004KT 10SM BKN100 OVC110 16/02 A3000 RMK AO2 SLP162 60000 T01560017 10156 20061 50005
KACB 
16nm SW 
211815Z AUTO 00000KT 10SM SCT120 20/00 A2998 RMK AO2 T01961004
KMGN 
16nm N 
211816Z AUTO 09005KT 10SM SCT090 SCT110 16/M01 A2999 RMK AO2 T01641016
KCVX 
17nm NW 
211816Z AUTO 08008KT 10SM SCT090 16/01 A3000 RMK AO2 T01590011
KPLN 
25nm N 
211754Z AUTO 10004KT 10SM BKN090 BKN110 14/M01 A3001 RMK AO2 RAB05E19 SLP164 P0000 60000 T01441006 10144 20067 51009
TAF
KPLN 
25nm N 
211730Z 2118/2218 VRB04KT P6SM BKN090 FM212100 07005KT P6SM BKN120 FM220500 11006KT P6SM BKN120 FM221200 12006KT P6SM BKN080 WS020/22030KT FM221300 12006KT P6SM BKN080
NOTAMs
Click for the latest NOTAMs
NOTAMs are issued by the DoD/FAA and will open in a separate window not controlled by AirNav.

 

 
 

FBO, Fuel Providers, and Aircraft Ground Support

  
 Business Name 
 
 Contact 
 
 Services / Description 
 
Fuel Prices
 
Comments
  
Boyne Mountain Resort 231-549-6000
no information available

If you are affiliated with Boyne Mountain Resort and would like to show here your services, contact info, web link, logo, and more, click here
100LL
FS $4.90 
 Updated 12-Apr-2019
 
   write
FS=Full service
Update Fuel Prices
 

Would you like to see your business listed on this page?

 If your business provides an interesting product or service to pilots, flight crews, aircraft, or users of the Boyne Mountain Airport, you should consider listing it here.  To start the listing process, click on the button below
 
Add a business
 

Other Pages about Boyne Mountain Airport

Page from the Michigan Airport Directory (PDF)
 
Update a link
 
Copyright © AirNav, LLC. All rights reserved. Privacy Policy  Contact